Simultaneous Nadir Overpasses (SNOs) Predictions

Prediction of SNOs between GOES-16 and NOAA-19 Satellite Orbit:

Table of predicted SNOs for the next 14.0 days since TLE Epoch: 12/31/2022
Index Date Time (GOES-16) GOES-16 Lat,Lon NOAA-19 Lat,Lon Distance(km) Time Diff (sec)
1 01/02/2023 13:24:28 -0.05, -75.21 0.39, -77.00 205.31 80
2 01/03/2023 13:09:53 -0.05, -75.21 -0.33, -74.10 127.03 80
3 01/04/2023 12:57:58 -0.05, -75.22 -1.00, -71.20 459.41 80
4 01/06/2023 01:32:58 0.04, -75.21 -0.84, -78.94 425.93 80
5 01/07/2023 01:21:03 0.04, -75.22 -0.15, -76.04 93.03 80
6 01/08/2023 01:06:27 0.04, -75.23 0.54, -73.13 240.06 80
7 01/10/2023 13:29:28 -0.03, -75.28 0.59, -77.96 305.19 80
8 01/11/2023 13:14:53 -0.03, -75.30 -0.09, -75.05 28.47 80
9 01/12/2023 13:02:57 -0.03, -75.32 -0.77, -72.15 362.31 80
